User: anonymous   Login
Location: Unspecified
(0.0000°N, 0.0000°E)
Time: 05:34:06
(UTC+00:00)
Language:

IUE - Orbit

View from above orbital plane
View from above orbital plane
View from above satellite
View from above satellite

Ground track
Ground track

The orbit data is extracted from the following two-line orbital elements,

1 10637U 78012A   18015.38382623 -.00000217 +00000-0 +00000-0 0  9996
2 10637 042.8827 333.1469 1580866 215.1487 335.3039 01.00057860098304
Epoch (UTC): 15 January 2018 09:12:42
Eccentricity: 0.1580866
inclination: 42.8827°
perigee height: 29171 km
apogee height: 42521 km
right ascension of ascending node: 333.1469°
argument of perigee: 215.1487°
revolutions per day: 1.00057860
mean anomaly at epoch: 335.3039°
orbit number at epoch: 9830

The dashed part of the orbit path shows where the satellite is in the earth's shadow,  

DLR